Location: Krakow
(50.0212°N, 19.9423°E)
Time: 02:52:04
(UTC+02:00)

NOAA 15 - Pass Details

Date: 20 September 2024
Orbit: 795 x 810 km, 98.6° (Epoch: 10 October)

Event Time Altitude Azimuth Distance (km) Brightness Sun altitude
Rises 20:19:58 0° 198° (SSW) 3,288 7.7 -16.2°
Reaches altitude 10° 20:22:39 10° 211° (SSW) 2,362 7.1 -16.6°
Maximum altitude 20:26:59 26° 267° (W) 1,525 6.8 -17.2°
Drops below altitude 10° 20:31:21 10° 324° (NW) 2,377 7.9 -17.9°
Sets 20:34:04 0° 337° (NNW) 3,312 8.5 -18.3°
